FW6327 Weather Reports


Display with metric or nautical units.
time (UTC)temp
F
wind
direction
speed
MPH
gust
MPH
rain 1hr
in
rain 24hr
in
rain mn
in
humidity
%
barometer
mb
20260505124555 55 172 8.0 14.0 0.00 0.41 0.00 68 1009.4
20260505123059 54 156 10.0 17.0 0.00 0.41 0.00 71 1009.6
20260505121543 53 167 7.0 14.0 0.00 0.41 0.00 72 1009.6
20260505120041 52 148 8.0 15.0 0.00 0.41 0.00 75 1009.4
20260505114533 51 173 9.0 17.0 0.00 0.52 0.00 78 1009.6
20260505113028 50 165 6.0 14.0 0.00 0.52 0.00 80 1009.4
20260505111523 49 171 7.0 11.0 0.00 0.52 0.00 82 1009.6
20260505101508 43 226 5.0 10.0 0.00 0.61 0.00 88 1009.1
20260505100101 41 222 1.0 5.0 0.00 0.61 0.00 89 1008.8
20260505094558 40 221 1.0 4.0 0.00 0.70 0.00 89 1008.7
20260505093054 40 221 0.0 3.0 0.00 0.70 0.00 88 1008.4
20260505091609 40 219 1.0 7.0 0.00 0.70 0.00 88 1008.2
20260505090048 40 223 2.0 5.0 0.00 0.70 0.00 88 1008.1
20260505084544 41 200 2.0 6.0 0.00 0.78 0.00 87 1008.2
20260505083041 42 186 3.0 8.0 0.00 0.78 0.00 87 1008.0
20260505081540 42 200 4.0 10.0 0.00 0.78 0.00 87 1007.9
20260505080037 42 176 5.0 12.0 0.00 0.78 0.00 87 1007.6
20260505074530 41 251 1.0 8.0 0.00 0.84 0.00 87 1007.3
20260505073027 42 360 0.0 7.0 0.00 0.84 0.00 87 1007.2
20260505071521 42 286 2.0 10.0 0.00 0.84 0.00 87 1006.8
20260505070019 42 190 4.0 11.0 0.00 0.84 0.00 87 1006.6
20260505064515 42 298 0.0 9.0 0.00 0.89 0.00 87 1006.3
20260505063011 42 267 2.0 10.0 0.00 0.89 0.00 87 1006.1
20260505061508 42 254 0.0 9.0 0.00 0.89 0.00 87 1005.6
20260505060105 42 202 3.0 10.0 0.00 0.89 0.00 86 1005.2
20260505054559 43 223 5.0 11.0 0.00 0.91 0.00 86 1005.1
20260505053151 43 221 3.0 11.0 0.00 0.91 0.00 86 1004.9
20260505051607 43 190 3.0 10.0 0.00 0.91 0.00 86 1004.9
20260505041532 44 269 4.0 10.0 0.00 0.91 0.00 85 1004.1
20260505040027 44 212 3.0 7.0 0.00 0.91 0.00 85 1003.9
20260505034522 45 252 1.0 9.0 0.00 0.91 0.00 85 1003.8
20260505033018 44 252 5.0 10.0 0.00 0.91 0.00 86 1003.5
20260505031516 44 223 0.0 4.0 0.01 0.91 0.00 87 1003.5
20260505030016 44 150 1.0 8.0 0.01 0.91 0.00 87 1003.5
20260505024510 44 223 0.0 6.0 0.01 0.91 0.91 86 1003.2
20260505023005 46 260 2.0 7.0 0.01 0.91 0.91 83 1003.0
20260505021511 47 228 5.0 11.0 0.00 0.90 0.90 79 1003.0
20260505020108 47 225 3.0 11.0 0.00 0.90 0.90 80 1002.5
20260505014558 48 171 5.0 14.0 0.00 0.91 0.90 77 1002.4
20260505013104 48 212 7.0 16.0 0.00 0.91 0.90 77 1002.2
20260505011554 48 213 4.0 16.0 0.00 0.91 0.90 75 1002.1
20260505010108 49 219 7.0 14.0 0.00 0.91 0.90 73 1002.0
20260505004549 48 190 4.0 9.0 0.00 0.92 0.90 74 1001.8
20260505003046 48 203 5.0 10.0 0.00 0.92 0.90 71 1001.9
20260505001543 49 228 7.0 14.0 0.00 0.92 0.90 68 1001.7
20260505000044 49 169 5.0 16.0 0.00 0.92 0.90 67 1001.3
20260504234535 47 153 5.0 17.0 0.00 1.01 0.90 71 1001.0
20260504233038 40 216 3.0 7.0 0.00 1.01 0.90 86 1000.8
20260504231630 39 323 0.0 3.0 0.00 1.01 0.90 87 1000.6
20260504230027 39 324 1.0 4.0 0.00 1.01 0.90 87 1000.6
20260504224524 40 292 0.0 3.0 0.00 1.10 0.90 86 1000.5
20260504223022 40 292 1.0 4.0 0.00 1.10 0.90 86 1000.3
20260504221519 42 292 0.0 4.0 0.00 1.10 0.90 84 1000.3
20260504220016 42 5 1.0 6.0 0.00 1.10 0.90 84 1000.0
20260504214512 44 23 2.0 6.0 0.00 1.20 0.90 81 999.9
20260504213016 46 5 3.0 5.0 0.00 1.20 0.90 78 999.7
20260504211509 47 308 3.0 6.0 0.00 1.20 0.90 74 999.5
20260504210005 49 51 2.0 4.0 0.00 1.20 0.90 70 999.3
20260504204503 49 225 1.0 7.0 0.00 1.24 0.90 73 999.2
20260504203108 48 239 1.0 5.0 0.00 1.24 0.90 73 999.0
20260504201555 48 234 5.0 11.0 0.00 1.24 0.90 72 998.9
20260504200051 49 17 1.0 8.0 0.00 1.24 0.90 77 998.4
20260504194545 47 190 1.0 6.0 0.00 1.32 0.90 80 998.1
20260504193041 45 241 2.0 9.0 0.00 1.32 0.90 81 998.0
20260504191537 45 215 4.0 8.0 0.00 1.32 0.90 83 997.9
20260504190035 44 227 3.0 9.0 0.00 1.32 0.90 85 997.8
20260504184530 43 196 3.0 10.0 0.00 1.32 0.90 86 997.5
20260504183030 43 202 6.0 14.0 0.00 1.32 0.90 86 997.5
20260504181522 43 166 5.0 16.0 0.00 1.32 0.90 87 997.2
20260504180016 43 225 4.0 15.0 0.00 1.32 0.90 87 997.1
20260504174513 42 247 4.0 11.0 0.00 1.32 0.90 88 996.8
20260504173010 42 225 4.0 12.0 0.00 1.32 0.90 88 996.4
20260504171505 42 169 4.0 11.0 0.01 1.32 0.90 88 996.0